Regional Weather Roundup
Issued by NWS

Home | Current Version | Previous Version | Graphics & Text | Print | Product List | Glossary On
Versions: 1 2 3 4 5 6 7 8 9 10 11 12 13 14 15 16 17 18 19 20 21 22 23 24 25 26 27 28 29 30 31 32 33 34 35 36 37 38 39 40 41 42 43 44 45 46 47 48 49 50
000
ASUS45 KSLC 022310
RWRUT

UTAH REGIONAL WEATHER ROUNDUP
NATIONAL WEATHER SERVICE SALT LAKE CITY UT
500 PM MDT TUE SEP 02 2014

UTZ001>011-023>025-030000-

NORTHERN UTAH

CITY           SKY/WX    TMP DP  RH WIND       PRES   REMARKS
HILL AFB       SUNNY     84  40  21 VRB2      29.94F
LOGAN          SUNNY     82  42  24 VRB3      29.91F
OGDEN          SUNNY     85  38  18 N3        29.91F
PROVO AIRPORT  MOSUNNY   90  43  19 SE3       29.91F
SALT LAKE CITY MOSUNNY   88  41  19 NW10      29.88F
VERNAL         SUNNY     83  42  23 W6        29.97F
WENDOVER       SUNNY     84  37  18 SE8       29.88F
HEBER CITY     SUNNY     84  36  17 S12G20    29.99F
WEST JORDAN    SUNNY     90  54  29 NW13      29.91F

$$

UTZ012>022-026-027-030000-

SOUTHERN UTAH

CITY           SKY/WX    TMP DP  RH WIND       PRES   REMARKS
BRYCE CANYON   SUNNY     79  36  21 SW13G18   30.19F
CEDAR CITY     SUNNY     88  30  12 SW17G24   30.01F
MILFORD        SUNNY     93  30  10 S17G24    29.93F
MOAB/CYNLANDS  SUNNY     94  32  11 W9        29.90F
PRICE          SUNNY     88  31  13 SE8       30.01F
ST GEORGE      CLEAR     99  39  12 CALM      29.82F HX  94
KANAB            N/A     91  32  12 S13       30.00F

$$

REGIONAL REPORTS     COLORADO/ARIZONA

CITY           SKY/WX    TMP DP  RH WIND       PRES   REMARKS
CRAIG, CO      SUNNY     82  34  17 W16G31    30.05F
GRAND JUNCTION SUNNY     88  35  15 NW14      29.95F
RIFLE          SUNNY     86  32  14 W13G18    30.01F
MONTROSE       MOSUNNY   87  32  14 VRB5      30.03F
CORTEZ         SUNNY     88  31  13 W10       30.07F
PAGE, AZ       SUNNY     97  38  13 E7        29.91F HX  92
GRAND CANYON   SUNNY     82  25  12 SW15      30.15F
KINGMAN        SUNNY     97  36  12 SW14G23   29.89F HX  92
FLAGSTAFF      SUNNY     78  32  18 VRB5      30.20F

$$

REGIONAL REPORTS    NEVADA/IDAHO/WYOMING

CITY           SKY/WX    TMP DP  RH WIND       PRES   REMARKS
LAS VEGAS, NV  SUNNY    105  32   8 S16       29.69F HX  98
ELY            SUNNY     88  27  11 S15G28    30.00F
ELKO           SUNNY     89  27  10 SW8       29.90F
POCATELLO, ID  SUNNY     82  35  18 W20       29.90F
BURLEY         SUNNY     81  40  23 NW6       29.86F
EVANSTON, WY   SUNNY     78  34  20 W21       30.10F
ROCK SPRINGS   SUNNY     79  31  17 W17G23    30.04F

$$



USA.gov is the U.S. government's official web portal to all federal, state and local government web resources and services.